Weather History for KTNB - May, 2013

Change the Weather History Date:

Wednesday, May 1, 2013

  Actual Average (KGEV) Record (KGEV)
Temperature  
Mean Temperature 54 °F -  
Max Temperature 58 °F 69 °F 84 °F (2007)
Min Temperature 49 °F 43 °F 27 °F (1988)
Degree Days  
Heating Degree Days 12    
Growing Degree Days 4 (Base 50)    
Moisture  
Dew Point 51 °F    
Average Humidity 94    
Maximum Humidity 100    
Minimum Humidity 71    
Precipitation  
Precipitation 0.01 in - - ()
Sea Level Pressure  
Sea Level Pressure 30.29 in    
Wind  
Wind Speed 5 mph (ESE)    
Max Wind Speed 10 mph    
Max Gust Speed 23 mph    
Visibility 8 miles    
Events Rain    
Averages and records for this station are not official NWS values.
T = Trace of Precipitation, MM = Missing Value Source: NWS Daily Summary

Daily Weather History Graph

Daily Weather History Graph

Search for Another Location

Airport or City:

Trip Planner

Search our weather history database for the weather conditions in past years. The results will help you decide how hot, cold, wet, or windy it might be!

Date:

Astronomy

May. 01, 2013 Rise Set
Actual Time 6:33 AM EDT 8:14 PM EDT
Civil Twilight 6:05 AM EDT 8:42 PM EDT
Nautical Twilight 5:32 AM EDT 9:15 PM EDT
Astronomical Twilight 4:57 AM EDT 9:50 PM EDT
Moon 1:22 AM EDT (5/1) 12:10 PM EDT (5/1)
Length of Visible Light 14h 36m
Length of Day
13h 40m
Waning Gibbous, 59% of the Moon is Illuminated
May 1
Waning Gibbous
May 2
Last Quarter
May 9
New
May 18
First Quarter
May 25
Full

Hourly Weather History & Observations

Time (EDT) Temp. Dew Point Humidity Pressure Visibility Wind Dir Wind Speed Gust Speed Precip Events Conditions
12:15 AM 53.1 °F 52.9 °F 99% 30.24 in 7.0 mi ESE 3.5 mph - N/A   Overcast
12:35 AM 52.9 °F 52.7 °F 99% 30.25 in 10.0 mi ESE 6.9 mph - N/A   Overcast
12:55 AM 52.7 °F 52.5 °F 99% 30.25 in 10.0 mi ESE 4.6 mph - N/A   Overcast
1:15 AM 52.3 °F 52.2 °F 99% 30.25 in 7.0 mi ESE 4.6 mph - N/A   Overcast
1:35 AM 52.2 °F 52.2 °F 100% 30.24 in 10.0 mi ESE 4.6 mph - N/A   Overcast
1:55 AM 52.2 °F 52.2 °F 100% 30.23 in 10.0 mi ESE 3.5 mph - N/A   Overcast
2:15 AM 51.8 °F 51.8 °F 100% 30.23 in 10.0 mi SE 5.8 mph - N/A   Overcast
2:35 AM 51.8 °F 51.4 °F 99% 30.23 in 10.0 mi Calm Calm - N/A   Overcast
2:55 AM 51.6 °F 51.4 °F 99% 30.23 in 10.0 mi Calm Calm - N/A   Overcast
3:15 AM 51.4 °F 51.3 °F 99% 30.23 in 10.0 mi ESE 5.8 mph - N/A   Overcast
3:35 AM 51.3 °F 51.3 °F 100% 30.23 in 10.0 mi ESE 4.6 mph - N/A   Overcast
3:55 AM 51.3 °F 51.3 °F 100% 30.23 in 10.0 mi Calm Calm - N/A   Overcast
4:15 AM 51.1 °F 51.1 °F 100% 30.23 in 10.0 mi Calm Calm - N/A   Overcast
4:35 AM 50.9 °F 50.9 °F 100% 30.23 in 10.0 mi ESE 4.6 mph - N/A   Overcast
4:55 AM 50.9 °F 50.9 °F 100% 30.23 in 10.0 mi ESE 4.6 mph - N/A   Overcast
5:15 AM 50.9 °F 50.9 °F 100% 30.23 in 10.0 mi Calm Calm - N/A   Overcast
5:35 AM 50.9 °F 50.9 °F 100% 30.23 in 10.0 mi Calm Calm - N/A   Overcast
5:55 AM 50.9 °F 50.9 °F 100% 30.24 in 10.0 mi Calm Calm - N/A   Overcast
6:15 AM 50.9 °F 50.9 °F 100% 30.25 in 10.0 mi ESE 3.5 mph - N/A   Overcast
6:35 AM 50.9 °F 50.9 °F 100% 30.25 in 10.0 mi Calm Calm - N/A   Overcast
7:15 AM 50.0 °F 50.0 °F 100% 30.27 in 0.8 mi ESE 4.6 mph - N/A   Overcast
7:35 AM 49.3 °F 49.3 °F 100% 30.28 in 4.0 mi ESE 8.1 mph - N/A   Light Drizzle
8:15 AM 49.1 °F 49.1 °F 100% 30.29 in 3.0 mi SE 6.9 mph - N/A   Drizzle
8:35 AM 49.1 °F 49.1 °F 100% 30.30 in 2.5 mi ESE 6.9 mph - N/A Rain Rain
8:55 AM 50.0 °F 50.0 °F 100% 30.30 in 5.0 mi East 3.5 mph - N/A   Light Drizzle
9:15 AM 50.5 °F 50.4 °F 99% 30.30 in 10.0 mi East 4.6 mph - N/A   Overcast
9:35 AM 51.4 °F 50.0 °F 95% 30.31 in 10.0 mi East 5.8 mph - N/A   Mostly Cloudy
9:55 AM 51.3 °F 50.5 °F 97% 30.31 in 10.0 mi ESE 3.5 mph - N/A   Mostly Cloudy
10:15 AM 51.8 °F 50.2 °F 94% 30.31 in 7.0 mi ESE 3.5 mph - N/A   Mostly Cloudy
10:35 AM 52.0 °F 50.9 °F 96% 30.32 in 10.0 mi ESE 3.5 mph - N/A   Mostly Cloudy
10:55 AM 52.2 °F 50.9 °F 95% 30.32 in 4.0 mi East 3.5 mph - N/A   Mostly Cloudy
11:15 AM 53.8 °F 50.4 °F 88% 30.33 in 10.0 mi Calm Calm - N/A   Mostly Cloudy
11:35 AM 54.5 °F 50.0 °F 85% 30.33 in 10.0 mi East 4.6 mph - N/A   Mostly Cloudy
11:55 AM 54.5 °F 50.9 °F 88% 30.35 in 10.0 mi ESE 5.8 mph - N/A   Mostly Cloudy
12:15 PM 54.3 °F 50.2 °F 86% 30.34 in 7.0 mi ESE 6.9 mph - N/A   Mostly Cloudy
12:35 PM 56.1 °F 51.3 °F 84% 30.32 in 10.0 mi ESE 4.6 mph - N/A   Mostly Cloudy
12:55 PM 55.6 °F 50.0 °F 81% 30.32 in 10.0 mi ESE 9.2 mph 16.1 mph N/A   Mostly Cloudy
1:15 PM 55.8 °F 50.4 °F 82% 30.31 in 10.0 mi East 5.8 mph - N/A   Mostly Cloudy
1:35 PM 55.9 °F 50.4 °F 82% 30.31 in 10.0 mi ESE 5.8 mph - N/A   Mostly Cloudy
2:15 PM 55.9 °F 51.3 °F 84% 30.30 in 10.0 mi ESE 6.9 mph - N/A   Mostly Cloudy
2:35 PM 57.2 °F 52.0 °F 83% 30.30 in 10.0 mi ESE 8.1 mph - N/A   Mostly Cloudy
2:55 PM 57.7 °F 48.7 °F 72% 30.30 in 10.0 mi ESE 4.6 mph 17.3 mph N/A   Mostly Cloudy
3:15 PM 57.6 °F 49.3 °F 74% 30.30 in 10.0 mi East 10.4 mph - N/A   Mostly Cloudy
3:35 PM 58.3 °F 48.7 °F 71% 30.30 in 10.0 mi East 6.9 mph - N/A   Mostly Cloudy
3:55 PM 57.2 °F 49.3 °F 75% 30.31 in 10.0 mi East 8.1 mph 16.1 mph N/A   Mostly Cloudy
4:15 PM 55.8 °F 52.2 °F 88% 30.31 in 5.0 mi ESE 6.9 mph - N/A   Light Drizzle
4:35 PM 55.9 °F 51.6 °F 85% 30.31 in 10.0 mi ESE 5.8 mph - N/A   Mostly Cloudy
4:55 PM 56.1 °F 51.4 °F 84% 30.31 in 10.0 mi ESE 3.5 mph - N/A   Mostly Cloudy
5:15 PM 56.8 °F 51.8 °F 83% 30.30 in 10.0 mi East 6.9 mph - N/A   Mostly Cloudy
5:35 PM 55.6 °F 52.0 °F 88% 30.30 in 10.0 mi ESE 8.1 mph - N/A   Mostly Cloudy
5:55 PM 55.4 °F 52.3 °F 89% 30.30 in 10.0 mi ESE 8.1 mph - N/A   Mostly Cloudy
6:15 PM 54.1 °F 52.7 °F 95% 30.30 in 3.0 mi East 6.9 mph - N/A Rain Rain
6:35 PM 53.4 °F 52.7 °F 97% 30.30 in 5.0 mi ESE 5.8 mph - N/A   Light Drizzle
6:55 PM 53.2 °F 52.7 °F 98% 30.30 in 5.0 mi ESE 3.5 mph - N/A Rain Light Rain
7:15 PM 53.2 °F 52.9 °F 99% 30.30 in 10.0 mi East 5.8 mph - N/A   Overcast
7:35 PM 53.2 °F 52.2 °F 96% 30.30 in 10.0 mi ESE 5.8 mph - N/A   Overcast
7:55 PM 53.1 °F 52.2 °F 97% 30.30 in 10.0 mi Calm Calm - N/A   Overcast
8:15 PM 52.9 °F 52.2 °F 97% 30.30 in 10.0 mi SE 5.8 mph - N/A   Overcast
8:35 PM 52.7 °F 52.2 °F 98% 30.31 in 10.0 mi East 4.6 mph - N/A   Light Drizzle
8:55 PM 52.2 °F 52.0 °F 99% 30.32 in 10.0 mi ESE 10.4 mph 16.1 mph N/A   Overcast
9:15 PM 52.2 °F 52.0 °F 99% 30.32 in 10.0 mi East 8.1 mph - N/A   Overcast
9:35 PM 52.0 °F 51.8 °F 99% 30.32 in 7.0 mi ESE 6.9 mph - N/A Rain Light Rain
9:55 PM 51.4 °F 51.1 °F 99% 30.33 in 10.0 mi East 6.9 mph - N/A   Overcast
10:35 PM 51.1 °F 51.1 °F 100% 30.33 in 7.0 mi East 5.8 mph - N/A Rain Light Rain
10:55 PM 50.4 °F 50.4 °F 100% 30.33 in 4.0 mi East 8.1 mph 18.4 mph N/A   Overcast
11:15 PM 50.0 °F 50.0 °F 100% 30.33 in 4.0 mi ESE 10.4 mph 23.0 mph N/A Rain Light Rain
11:35 PM 49.6 °F 49.6 °F 100% 30.33 in 4.0 mi ESE 5.8 mph - N/A Rain Rain
11:55 PM 49.5 °F 49.5 °F 100% 30.34 in 4.0 mi SE 6.9 mph - 0.01 in   Light Drizzle